Location: Ellerstadt
(49.4644°N, 8.2615°E)
Time: 20:28:06
(UTC+00:00)

Vanguard 1 - Pass Details

Date: 15 June 2021
Orbit: 651 x 3832 km, 34.2° (Epoch: 27 July)

Event Time Altitude Azimuth Distance (km) Brightness Sun altitude
Rises 18:08:35 0° 178° (S) 7,913 14.4 11.2°
Reaches altitude 10° 18:19:27 10° 156° (SSE) 6,882 13.9 9.6°
Maximum altitude 18:27:14 13° 135° (SE) 6,396 13.7 8.5°
Drops below altitude 10° 18:34:22 10° 114° (ESE) 6,274 13.5 7.5°
Sets 18:42:47 0° 91° (E) 6,648 13.7 6.2°
